Regional Weather Roundup
Issued by NWS

Home | Current Version | Previous Version | Text Only | Print | Product List | Glossary On
Versions: 1 2 3 4 5 6 7 8 9 10 11 12 13 14 15 16 17 18 19 20 21 22 23 24 25 26 27 28 29 30 31 32 33 34 35 36 37 38 39 40 41 42 43 44 45 46 47 48 49 50
000
ASUS43 KMKX 260300
RWRWI

WISCONSIN REGIONAL WEATHER ROUNDUP
NATIONAL WEATHER SERVICE MILWAUKEE/SULLIVAN WI
1000 PM CDT SUN SEP 25 2016

NOTE: "FAIR" INDICATES FEW OR NO CLOUDS BELOW 12,000 FEET WITH NO
SIGNIFICANT WEATHER AND/OR OBSTRUCTIONS TO VISIBILITY.

WIZ001-002-006>008-014>016-023>028-260400-
NORTHWEST WISCONSIN

CITY           SKY/WX    TMP DP  RH WIND       PRES   REMARKS
SUPERIOR ARPT  MOCLDY    56  50  80 W10       29.82S
ASHLAND        CLOUDY    58  51  78 SW13G24   29.81S
HAYWARD        CLOUDY    54  51  90 SW8       29.87S
SIREN          CLOUDY    55  49  79 W9G18     29.90S
CUMBERLAND     CLOUDY    54  46  76 W12G22    29.92S
RICE LAKE      CLOUDY    55  49  80 W12G21    29.93S
CHETEK         NOT AVBL
LADYSMITH      CLOUDY    56  53  88 W14G21    29.91R
EAU CLAIRE     NOT AVBL
MENOMONIE      CLOUDY    56  56  99 W12G18    29.95S
NEW RICHMOND   CLEAR     54  46  75 W13       29.96S
OSCEOLA        CLEAR     55  46  71 W9G22     29.98S
$$

WIZ003>005-009-010-017-018-260400-
NORTH CENTRAL WISCONSIN

CITY           SKY/WX    TMP DP  RH WIND       PRES   REMARKS
MANITOWISH WTR NOT AVBL
ARBOR VITAE    CLOUDY    59  54  83 SW7       29.84F
WOODRUFF       CLOUDY    59  54  83 SW7       29.84F
RHINELANDER    MOCLDY    58  53  84 SW8       29.85F
EAGLE RIVER    PTCLDY    56  50  79 SW6       29.83F
LAND O LAKES   MOCLDY    58  53  84 SW5       29.84F
PHILLIPS       CLOUDY    55  55  98 W5        29.86S
TOMAHAWK       PTCLDY    56  51  81 W5        29.86F
MEDFORD        CLOUDY    55  55 100 W8        29.90S
MERRILL        CLOUDY    58  53  82 W8        29.88F
$$

WIZ029-030-035-036-043>047-260400-
CENTRAL WISCONSIN

CITY           SKY/WX    TMP DP  RH WIND       PRES   REMARKS
WAUSAU         CLOUDY    59  52  77 W10       29.87F
MOSINEE        NOT AVBL
MARSHFIELD     CLOUDY    57  53  86 W14G22    29.91F
STEVENS POINT  CLOUDY    60  54  82 W12       29.91S
WAUPACA        CLOUDY    65  56  74 SW7       29.90S
WAUTOMA        CLOUDY    63  55  75 W9        29.91F
WISC RAPIDS    CLOUDY    62  54  74 W12       29.93S
CAMP DOUGLAS   CLOUDY    59  54  84 W16       29.95R
$$

WIZ011>013-019>022-031-037>040-048>050-260400-
NORTHEAST WISCONSIN

CITY           SKY/WX    TMP DP  RH WIND       PRES   REMARKS
ANTIGO         CLOUDY    57  53  86 CALM      29.88S
SHAWANO        CLOUDY    64  58  82 W7        29.87S
OCONTO         NOT AVBL
STURGEON BAY   LGT RAIN  65  61  87 W15G23    29.85R
GREEN BAY      CLOUDY    64  61  90 W9        29.86F
MANITOWOC      NOT AVBL
APPLETON       MOCLDY    63  54  72 W12       29.88S
CLINTONVILLE   NOT AVBL
OSHKOSH        CLOUDY    64  54  69 W8        29.88F
$$

WIZ032>034-041-042-053>061-260400-
SOUTHWEST WISCONSIN

CITY           SKY/WX    TMP DP  RH WIND       PRES   REMARKS
LA CROSSE      CLOUDY    62  53  72 W10       29.97S
SPARTA         CLOUDY    59  55  86 W8        29.98R
VIROQUA        CLOUDY    57  52  85 W9G16     30.00R
BOSCOBEL       CLOUDY    63  53  70 W9        30.00R
PRAIRIE DU CHI CLOUDY    62  51  67 W14G21    30.01S
PLATTEVILLE    CLOUDY    62  53  73 W10G16    30.02R
$$

WIZ056-057-062-063-064-067-068-260400-
SOUTH CENTRAL WISCONSIN

CITY           SKY/WX    TMP DP  RH WIND       PRES   REMARKS
REEDSBURG      NOT AVBL
BARABOO/DELLS  CLOUDY    62  51  68 W9        29.95S
LONE ROCK      NOT AVBL
MINERAL POINT  CLOUDY    63  54  72 W12       30.00R
MADISON        CLOUDY    64  53  67 VRB7      29.95F
MIDDLETON      CLOUDY    64  54  70 W8        29.97S
WATERTOWN      DRIZZLE   64  58  81 W8        29.94R
MONROE         CLOUDY    63  52  67 W10       29.99S
JANESVILLE     NOT AVBL
$$

WIZ051-052-058>065-066-070>072-260400-
SOUTHEAST WISCONSIN

CITY           SKY/WX    TMP DP  RH WIND       PRES   REMARKS
MILWAUKEE      CLOUDY    70  64  81 W13       29.91R
WAUKESHA       CLOUDY    63  57  82 W18       29.94R
MILWAUKEE/TIMM CLOUDY    68  61  77 W10G16    29.91R
RACINE         CLOUDY    68  62  81 W12G17    29.93R
BURLINGTON     CLOUDY    65  56  72 W8G16     29.95R
KENOSHA        CLOUDY    67  59  75 W14G22    29.93R
FOND DU LAC    CLOUDY    64  57  78 W7        29.91R
SHEBOYGAN      LGT RAIN  66  61  84 W12G23    29.88R
WEST BEND      LGT RAIN  64  59  82 W10G21    29.91R
JUNEAU         CLOUDY    64  55  73 W13G18    29.95R
$$

LSZ147-162-260400-
LAKE SUPERIOR

STATION/POSITION TIME  TEMP    WIND        PRES    WAVE
                       AIR SEA DIR/SP/G            HT/PER
                 (UTC) (F)     (DEG/KT/KT) (MB)    (FT/S)
W MID LAKE BUOY  0150   62 61  230/ 19/ 25 1006.6S   5/ 6
DEVILS ISLAND    0200   59     230/ 18/ 21 1007.9F
SAXON HARBOR     0200   61     220/  8/ 13 1009.1
$$

LMZ867-665-643>646-260400-
LAKE MICHIGAN

STATION/POSITION TIME  TEMP    WIND        PRES    WAVE
                       AIR SEA DIR/SP/G            HT/PER
                 (UTC) (F)     (DEG/KT/KT) (MB)    (FT/S)
CHAMBERS ISLAND  0200   67     160/  7/ 12 1009.5S
N MID LAKE BUOY  0150   67 67  180/ 16/ 19 1010.0F   4/ 5
NORTHPORT PIER   0200   67     150/ 10/ 14 1009.5F
KEWAUNEE LAKESHO 0200   67     210/  6/  9 1010.3F
SHEBOYGAN LAKESH 0200   69     220/  7/  7 1010.8S
PORT WASHINGTON  0200   71     270/  8/ 12 1012.5R
ATWATER BUOY     0200   65 53  270/  6/  8 1011.8R
MILWAUKEE LAKESH 0210   72     260/ 10/ 12   N/A
S MID LAKE BUOY  0150   74 72  160/ 16/ 17 1011.0F   2/ 3
KENOSHA   LAKESH 0200   72     250/  6/  8 1012.2R
$$

TC  - TEMPERATURE IN CELSIUS
VSB - VISIBILITY IN STATUTE MILES
WCI - WIND CHILL INDEX
HX  - HEAT INDEX




USA.gov is the U.S. government's official web portal to all federal, state and local government web resources and services.